Location: Bakov nad Jizerou
(50.4784°N, 14.9394°E)
Time: 02:29:29
(UTC+00:00)

Cosmos 1727 Rocket - Pass Details

Date: 24 October 2021
Orbit: 960 x 997 km, 82.9° (Epoch: 07 December)

Event Time Altitude Azimuth Distance (km) Brightness Sun altitude
Rises 18:12:06 0° 336° (NNW) 3,674 7.5 -23.1°
Reaches altitude 10° 18:16:22 10° 308° (NW) 2,713 7.2 -23.8°
Maximum altitude 18:18:38 12° 286° (WNW) 2,546 7.2 -24.2°
Drops below altitude 10° 18:20:55 10° 264° (W) 2,701 7.3 -24.5°
Sets 18:25:09 0° 236° (WSW) 3,638 7.6 -25.2°
